Weather History for Hugo, OK

Change the Weather History Date:

Saturday, July 20, 2013

  Actual Average Record
Temperature  
Mean Temperature 86 °F -  
Max Temperature 96 °F 95 °F 96 °F (2013)
Min Temperature 75 °F 70 °F 75 °F (2013)
Cooling Degree Days 20    
Growing Degree Days 36 (Base 50)    
Moisture  
Dew Point 75 °F    
Average Humidity 76    
Maximum Humidity 97    
Minimum Humidity 47    
Precipitation  
Precipitation 0.00 in - - ()
Sea Level Pressure  
Sea Level Pressure 29.94 in    
Wind  
Wind Speed 2 mph (SSE)    
Max Wind Speed 8 mph    
Max Gust Speed -    
Visibility 8 miles    
Events      
Averages and records for this station are not official NWS values.
T = Trace of Precipitation, MM = Missing Value Source: NWS Daily Summary

Daily Weather History Graph

Daily Weather History Graph

Search for Another Location

Airport:

Trip Planner

Search our weather history database for the weather conditions in past years. The results will help you decide how hot, cold, wet, or windy it might be!

Date:

Astronomy

Jul. 20, 2013 Rise Set
Actual Time 6:25 AM CDT 8:31 PM CDT
Civil Twilight 5:57 AM CDT 8:59 PM CDT
Nautical Twilight 5:22 AM CDT 9:33 PM CDT
Astronomical Twilight 4:45 AM CDT 10:10 PM CDT
Moon 6:36 PM CDT 4:06 AM CDT
Length of Visible Light 15h 02m
Length of Day
14h 06m
Waxing Gibbous, 94% of the Moon is Illuminated
Jul 20
Waxing Gibbous
Jul 22
Full
Jul 29
Last Quarter
Aug 6
New
Aug 14
First Quarter

Hourly Weather History & Observations

Time (CDT) Temp. Heat Index Dew Point Humidity Pressure Visibility Wind Dir Wind Speed Gust Speed Precip Events Conditions
12:15 AM 76.1 °F - 74.7 °F 95% 29.98 in 7.0 mi South 3.5 mph - N/A   Clear
12:35 AM 76.1 °F - 74.8 °F 96% 29.98 in 7.0 mi Calm Calm - N/A   Clear
12:55 AM 76.3 °F - 75.0 °F 96% 29.98 in 7.0 mi Calm Calm - N/A   Clear
1:15 AM 75.6 °F - 74.3 °F 96% 29.98 in 7.0 mi Calm Calm - N/A   Clear
1:35 AM 75.2 °F - 73.8 °F 95% 29.98 in 5.0 mi NW 3.5 mph - N/A   Clear
1:55 AM 75.2 °F - 74.3 °F 97% 29.98 in 4.0 mi Calm Calm - N/A   Clear
2:15 AM 75.9 °F - 74.7 °F 96% 29.98 in 7.0 mi Calm Calm - N/A   Clear
2:35 AM 75.7 °F - 74.7 °F 96% 29.99 in 5.0 mi Calm Calm - N/A   Clear
2:55 AM 75.4 °F - 74.3 °F 96% 29.98 in 3.0 mi Calm Calm - N/A   Clear
3:15 AM 75.4 °F - 74.3 °F 96% 29.98 in 4.0 mi Calm Calm - N/A   Clear
3:35 AM 75.6 °F - 74.5 °F 96% 29.98 in 4.0 mi Calm Calm - N/A   Clear
3:55 AM 76.1 °F - 74.8 °F 96% 29.98 in 5.0 mi Calm Calm - N/A   Clear
4:15 AM 76.1 °F - 74.8 °F 96% 29.97 in 7.0 mi Calm Calm - N/A   Clear
4:35 AM 76.1 °F - 74.8 °F 96% 29.97 in 4.0 mi Calm Calm - N/A   Clear
4:55 AM 76.1 °F - 75.2 °F 97% 29.98 in 7.0 mi Calm Calm - N/A   Clear
5:15 AM 76.1 °F - 75.0 °F 96% 29.98 in 5.0 mi Calm Calm - N/A   Clear
5:35 AM 76.1 °F - 75.2 °F 97% 29.98 in 5.0 mi Calm Calm - N/A   Clear
5:55 AM 76.5 °F - 75.4 °F 96% 29.98 in 5.0 mi Calm Calm - N/A   Clear
6:15 AM 76.6 °F - 75.4 °F 96% 29.98 in 4.0 mi Calm Calm - N/A   Clear
6:35 AM 76.6 °F - 75.6 °F 96% 29.98 in 5.0 mi Calm Calm - N/A   Clear
6:55 AM 76.6 °F - 75.6 °F 96% 29.97 in 3.0 mi Calm Calm - N/A   Clear
7:15 AM 76.6 °F - 75.6 °F 96% 29.97 in 4.0 mi Calm Calm - N/A   Clear
7:35 AM 77.4 °F - 76.1 °F 96% 29.96 in 7.0 mi Calm Calm - N/A   Clear
7:55 AM 78.3 °F - 76.1 °F 93% 29.97 in 10.0 mi Calm Calm - N/A   Clear
8:15 AM 79.2 °F - 76.3 °F 91% 29.97 in 10.0 mi SSE 3.5 mph - N/A   Clear
8:35 AM 80.2 °F 85.8 °F 75.9 °F 87% 29.97 in 10.0 mi Calm Calm - N/A   Clear
8:55 AM 80.6 °F 86.4 °F 75.7 °F 85% 29.98 in 10.0 mi Calm Calm - N/A   Clear
9:15 AM 82.9 °F 91.5 °F 76.5 °F 81% 29.98 in 10.0 mi Calm Calm - N/A   Clear
9:35 AM 83.7 °F 91.7 °F 75.6 °F 76% 29.98 in 10.0 mi Calm Calm - N/A   Clear
9:55 AM 84.4 °F 95.4 °F 77.9 °F 81% 29.98 in 10.0 mi ENE 6.9 mph - N/A   Clear
10:15 AM 84.4 °F 95.0 °F 77.7 °F 80% 29.98 in 10.0 mi ENE 3.5 mph - N/A   Scattered Clouds
10:35 AM 86.9 °F 99.3 °F 77.5 °F 74% 29.98 in 10.0 mi ENE 4.6 mph - N/A   Clear
10:55 AM 86.2 °F 98.8 °F 78.1 °F 77% 29.98 in 10.0 mi East 6.9 mph - N/A   Clear
11:15 AM 86.0 °F 97.3 °F 77.2 °F 75% 29.98 in 10.0 mi East 4.6 mph - N/A   Clear
11:35 AM 87.1 °F 97.8 °F 76.3 °F 70% 29.97 in 10.0 mi Calm Calm - N/A   Clear
11:55 AM 88.7 °F 101.0 °F 76.8 °F 68% 29.97 in 10.0 mi ESE 3.5 mph - N/A   Clear
12:15 PM 89.4 °F 101.1 °F 76.1 °F 65% 29.96 in 10.0 mi SE 3.5 mph - N/A   Clear
12:35 PM 90.5 °F 101.5 °F 75.4 °F 61% 29.96 in 10.0 mi Calm Calm - N/A   Clear
12:55 PM 90.9 °F 100.6 °F 74.5 °F 58% 29.96 in 10.0 mi Calm Calm - N/A   Clear
1:15 PM 91.8 °F 100.9 °F 73.4 °F 55% 29.95 in 10.0 mi SE 5.8 mph - N/A   Scattered Clouds
1:35 PM 92.7 °F 105.0 °F 75.7 °F 58% 29.95 in 10.0 mi SE 5.8 mph - N/A   Scattered Clouds
1:55 PM 92.7 °F 104.3 °F 75.2 °F 57% 29.95 in 10.0 mi Calm Calm - N/A   Mostly Cloudy
2:15 PM 94.3 °F 104.9 °F 73.9 °F 52% 29.94 in 10.0 mi SW 4.6 mph - N/A   Scattered Clouds
2:35 PM 94.3 °F 107.1 °F 75.9 °F 55% 29.93 in 10.0 mi ESE 4.6 mph - N/A   Scattered Clouds
2:55 PM 95.0 °F 107.4 °F 75.4 °F 53% 29.92 in 10.0 mi ESE 3.5 mph - N/A   Clear
3:15 PM 94.8 °F 105.5 °F 74.3 °F 51% 29.91 in 10.0 mi SE 4.6 mph - N/A   Clear
3:35 PM 95.2 °F 104.9 °F 73.2 °F 49% 29.90 in 10.0 mi East 4.6 mph - N/A   Clear
3:55 PM 96.3 °F 106.0 °F 73.0 °F 47% 29.90 in 10.0 mi Calm Calm - N/A   Scattered Clouds
4:35 PM 95.9 °F 108.9 °F 75.9 °F 52% 29.88 in 10.0 mi SW 8.1 mph - N/A   Scattered Clouds
4:55 PM 94.8 °F 108.5 °F 76.1 °F 55% 29.87 in 10.0 mi South 3.5 mph - N/A   Mostly Cloudy
5:15 PM 95.9 °F 105.9 °F 73.4 °F 48% 29.87 in 10.0 mi ESE 4.6 mph - N/A   Mostly Cloudy
5:35 PM 94.8 °F 102.8 °F 71.8 °F 47% 29.86 in 10.0 mi SE 4.6 mph - N/A   Clear
5:55 PM 91.9 °F 103.2 °F 75.2 °F 58% 29.86 in 10.0 mi South 8.1 mph - N/A   Clear
6:15 PM 92.8 °F 102.2 °F 73.6 °F 53% 29.86 in 10.0 mi South 8.1 mph - N/A   Clear
6:35 PM 92.1 °F 102.4 °F 74.3 °F 56% 29.86 in 10.0 mi South 6.9 mph - N/A   Clear
6:55 PM 91.8 °F 102.8 °F 74.8 °F 58% 29.86 in 10.0 mi South 6.9 mph - N/A   Clear
7:15 PM 90.1 °F 99.4 °F 74.3 °F 59% 29.86 in 10.0 mi SSW 6.9 mph - N/A   Clear
7:35 PM 90.5 °F 100.9 °F 75.0 °F 60% 29.87 in 10.0 mi South 4.6 mph - N/A   Clear
7:55 PM 89.6 °F 99.8 °F 75.0 °F 62% 29.88 in 10.0 mi SSW 3.5 mph - N/A   Clear
8:15 PM 88.3 °F 98.9 °F 75.6 °F 66% 29.88 in 10.0 mi SSW 3.5 mph - N/A   Clear
8:35 PM 87.3 °F 97.2 °F 75.6 °F 68% 29.88 in 10.0 mi Calm Calm - N/A   Clear
8:55 PM 86.9 °F 96.4 °F 75.4 °F 68% 29.88 in 10.0 mi Calm Calm - N/A   Clear
9:15 PM 86.4 °F 96.0 °F 75.4 °F 70% 29.89 in 10.0 mi Calm Calm - N/A   Clear
9:35 PM 84.4 °F 93.5 °F 76.1 °F 76% 29.89 in 10.0 mi Calm Calm - N/A   Clear
9:55 PM 85.3 °F 94.6 °F 75.7 °F 73% 29.90 in 10.0 mi Calm Calm - N/A   Clear
10:15 PM 84.2 °F 93.4 °F 76.3 °F 77% 29.90 in 10.0 mi Calm Calm - N/A   Clear
10:35 PM 83.3 °F 91.8 °F 76.3 °F 79% 29.91 in 10.0 mi Calm Calm - N/A   Clear
10:55 PM 82.6 °F 90.5 °F 76.3 °F 81% 29.90 in 10.0 mi South 3.5 mph - N/A   Clear
11:15 PM 82.9 °F 90.5 °F 75.6 °F 78% 29.90 in 10.0 mi Calm Calm - N/A   Clear
11:35 PM 82.2 °F 89.3 °F 75.6 °F 80% 29.92 in 10.0 mi South 4.6 mph - N/A   Clear
11:55 PM 82.0 °F 88.4 °F 74.5 °F 78% 29.92 in 10.0 mi South 4.6 mph - N/A   Clear